CZ-6A DEB, 54331

Orbit data source: Space-Track

CZ-6A DEB, 54331 is space debris in SSO originally from a launch on Fri, 11 Nov 2022 UTC launched from the Taiyaun Space Center, China (TSC). Debris objects in space refer to the collection of defunct objects orbiting the Earth. Examples of debris include non-operational satellites, rocket bodies, and fragments generated from explosions, collisions, or faulty payload assembly.

Loading next visibility...
Identifier
54331, 2022-151CA
Orbit
SSO
Country
Flag of CNCN / PRC
Related business
Manufacturer
SAST
Mission
Spacecraft
Bus & Motor
Unknown
Mass
Unknown
Launch date (UTC)
2022-11-11 (4 years ago)
Launch vehicle
Unknown
Launch site
Taiyaun Space Center, China (TSC)
Object type
Payload
Rocket body
Debris
Shape & HBR
Unknown shape, 0.1 m
Radar Cross Section
Medium (>0.1 m² and <1 m²)

Expand to show TLE details & history
Last TLE update: 10 hours ago

TLE from 10 hours ago
0 CZ-6A DEB
1 54331U 22151CA  26236.38202628  .00000620  00000-0  45507-3 0  9999
2 54331  98.9129 204.3059 0119510 249.3677 109.4635 13.96118345191947
Epoch: 2026-08-24T09:10Z
TLE epoch observation values (Epoch: 2026-08-24T09:10:07.070Z)
Latitude
-0.00011°
Longitude
94.11192°
Altitude
940.08 km
Speed
7.367 km/s
True Right ascension
13h 37m 13s
True Declination
0° 00' 00"
Sunlit
Object was in daylight at epoch
Visualization orbit readout
Latitude
Unknown
Longitude
Unknown
Altitude
Unknown
Speed
Unknown
Apparent Right ascension
Unknown
Apparent Declination
Unknown
Sunlit
N/A
Visualization observer readout
Local Sidereal Time
10:49:20
Azimuth
Unknown
Elevation
Unknown
Doppler factor
Unknown
Orbital elements
Apogee altitude
991.502 km
Perigee altitude
817.433 km
Semi-major axis
7,282.605 km
Eccentricity
0.01195
Inclination
98.9129°
RAAN
204.3059°
Arg. of periapsis
249.3677°
True anomaly
110.74822°
Mean anomaly
109.4635°
Eccentric anomaly
110.10651°
Mean motion
3.49231 °/min
Orbital period
103.08 mins
BSTAR
0.00045507
Loading maneuver chart data...
Computing Atmospheric mass density...
Loading historical data...
Loading historical data...
Loading historical data...
Loading historical data...
Loading historical data...
Loading historical data...
Loading historical data...

Documentation

Showing up to 5 results
|